千帆星座-237(QIANFAN-237)

导读

QIANFAN-237(NORAD编号69866)是中国千帆星座的低轨通信卫星,大概率为2026年6月千帆星座三次密集发射期间入轨,该阶段发射推动千帆在轨卫星总量突破200颗。该卫星由上海垣信卫星科技主导研制,运行于近地轨道,主要承担手机直连卫星通信、北斗定位增强功能,可在无地面基站的偏远区域、应急场景下提供短消息、语音通话服务,辅助北斗系统将定位精度提升至厘米级,是我国天地一体化通信网络、6G融合技术布局的重要组成部分,目前在轨运行状态稳定。

基本信息
目录编号:
69866
目录名称:
QIANFAN-237
国际标识:
2026-155U
轨道中心:
EARTH
卫星名称:
千帆星座-237
卫星全名:
千帆星座-237(QIANFAN-237)
卫星状态:
在轨 (已飞行62 天)
发射日期:
2026-07-05 UTC
国别 :
中国 (CN)
星等 :
--
轨道信息
数据来源 国际轨道数据
星历时间: 2026-09-05T05:32:48+0800
10小时前
查看轨道信息
半长轴: 7393.864km
偏心率: 0.0038393
轨道倾角: 89.006°
近地点辐角 56.125°
升交点赤经 55.263°
平近点角 304.355°
近地点: 987.339km
远地点: 1044.115km
周期: 105.455分钟
每日圈数: 13.655123
详细信息
卫星平台:
237
覆盖范围:
全球
运营商:
上海垣信卫星科技有限公司
运营商所在国:
中国
使用方式:
暂无
卫星简介
千帆星座,也被称为“G60星链”计划,是中国版“星链”的重要组成部分,旨在打造一个由1.4万多颗低轨宽频多媒体卫星构成的庞大星座。千帆星座计划由上海垣信卫星科技有限公司负责实施,于2023年启动建设。该项目是我国第二个低轨卫星大星座,旨在通过构建庞大的卫星网络,为全球用户提供高质量的通信和宽带互联网服务。
2D轨道图
3D轨道图
轨道高度分析图
轨道倾角分析图
轨道综合分析图
查看轨道综合分析图
交会数据列表
事件ID 空间交会对象 最接近时刻(TCA) 交会距离 交会风险概率(CRP) 交会风险指数(CRI) 操作
CDM_260906-180800-451506-986621
2026-09-06T
18:08:43+0000
2.862 km
极远距离
1.417133E-6 低风险 0.38
CDM_260906-173902-166606-986621
2026-09-06T
17:39:09+0000
2.462 km
极远距离
4.705014E-7 极低风险 0.28